Year,Month,Day,Hour,Minute,Value (Times are PST for insolation in W/m^2)
2008,06,02,00,00,0.00
2008,06,02,00,01,0.00
2008,06,02,00,02,0.00
2008,06,02,00,03,0.00
2008,06,02,00,04,0.00
2008,06,02,00,05,0.00
2008,06,02,00,06,0.00
2008,06,02,00,07,0.00
2008,06,02,00,08,0.00
2008,06,02,00,09,0.00
2008,06,02,00,10,0.00
2008,06,02,00,11,0.00
2008,06,02,00,12,0.00
2008,06,02,00,13,0.00
2008,06,02,00,14,0.00
2008,06,02,00,15,0.00
2008,06,02,00,16,0.00
2008,06,02,00,17,0.00
2008,06,02,00,18,0.00
2008,06,02,00,19,0.00
2008,06,02,00,20,0.00
2008,06,02,00,21,0.00
2008,06,02,00,22,0.00
2008,06,02,00,23,0.00
2008,06,02,00,24,0.00
2008,06,02,00,25,0.00
2008,06,02,00,26,0.00
2008,06,02,00,27,0.00
2008,06,02,00,28,0.00
2008,06,02,00,29,0.00
2008,06,02,00,30,0.00
2008,06,02,00,31,0.00
2008,06,02,00,32,0.00
2008,06,02,00,33,0.00
2008,06,02,00,34,0.00
2008,06,02,00,35,0.00
2008,06,02,00,36,0.00
2008,06,02,00,37,0.00
2008,06,02,00,38,0.00
2008,06,02,00,39,0.00
2008,06,02,00,40,0.00
2008,06,02,00,41,0.00
2008,06,02,00,42,0.00
2008,06,02,00,43,0.00
2008,06,02,00,44,0.00
2008,06,02,00,45,0.00
2008,06,02,00,46,0.00
2008,06,02,00,47,0.00
2008,06,02,00,48,0.00
2008,06,02,00,49,0.00
2008,06,02,00,50,0.00
2008,06,02,00,51,0.00
2008,06,02,00,52,0.00
2008,06,02,00,53,0.00
2008,06,02,00,54,0.00
2008,06,02,00,55,0.00
2008,06,02,00,56,0.00
2008,06,02,00,57,0.00
2008,06,02,00,58,0.00
2008,06,02,00,59,0.00
2008,06,02,01,00,0.00
2008,06,02,01,01,0.00
2008,06,02,01,02,0.00
2008,06,02,01,03,0.00
2008,06,02,01,04,0.00
2008,06,02,01,05,0.00
2008,06,02,01,06,0.00
2008,06,02,01,07,0.00
2008,06,02,01,08,0.00
2008,06,02,01,09,0.00
2008,06,02,01,10,0.00
2008,06,02,01,11,0.00
2008,06,02,01,12,0.00
2008,06,02,01,13,0.00
2008,06,02,01,14,0.00
2008,06,02,01,15,0.00
2008,06,02,01,16,0.00
2008,06,02,01,17,0.00
2008,06,02,01,18,0.00
2008,06,02,01,19,0.00
2008,06,02,01,20,0.00
2008,06,02,01,21,0.00
2008,06,02,01,22,0.00
2008,06,02,01,23,0.00
2008,06,02,01,24,0.00
2008,06,02,01,25,0.00
2008,06,02,01,26,0.00
2008,06,02,01,27,0.00
2008,06,02,01,28,0.00
2008,06,02,01,29,0.00
2008,06,02,01,30,0.00
2008,06,02,01,31,0.00
2008,06,02,01,32,0.00
2008,06,02,01,33,0.00
2008,06,02,01,34,0.00
2008,06,02,01,35,0.00
2008,06,02,01,36,0.00
2008,06,02,01,37,0.00
2008,06,02,01,38,0.00
2008,06,02,01,39,0.00
2008,06,02,01,40,0.00
2008,06,02,01,41,0.00
2008,06,02,01,42,0.00
2008,06,02,01,43,0.00
2008,06,02,01,44,0.00
2008,06,02,01,45,0.00
2008,06,02,01,46,0.00
2008,06,02,01,47,0.00
2008,06,02,01,48,0.00
2008,06,02,01,49,0.00
2008,06,02,01,50,0.00
2008,06,02,01,51,0.00
2008,06,02,01,52,0.00
2008,06,02,01,53,0.00
2008,06,02,01,54,0.00
2008,06,02,01,55,0.00
2008,06,02,01,56,0.00
2008,06,02,01,57,0.00
2008,06,02,01,58,0.00
2008,06,02,01,59,0.00
2008,06,02,02,00,0.00
2008,06,02,02,01,0.00
2008,06,02,02,02,0.00
2008,06,02,02,03,0.00
2008,06,02,02,04,0.00
2008,06,02,02,05,0.00
2008,06,02,02,06,0.00
2008,06,02,02,07,0.00
2008,06,02,02,08,0.00
2008,06,02,02,09,0.00
2008,06,02,02,10,0.00
2008,06,02,02,11,0.00
2008,06,02,02,12,0.00
2008,06,02,02,13,0.00
2008,06,02,02,14,0.00
2008,06,02,02,15,0.00
2008,06,02,02,16,0.00
2008,06,02,02,17,0.00
2008,06,02,02,18,0.00
2008,06,02,02,19,0.00
2008,06,02,02,20,0.00
2008,06,02,02,21,0.00
2008,06,02,02,22,0.00
2008,06,02,02,23,0.00
2008,06,02,02,24,0.00
2008,06,02,02,25,0.00
2008,06,02,02,26,0.00
2008,06,02,02,27,0.00
2008,06,02,02,28,0.00
2008,06,02,02,29,0.00
2008,06,02,02,30,0.00
2008,06,02,02,31,0.00
2008,06,02,02,32,0.00
2008,06,02,02,33,0.00
2008,06,02,02,34,0.00
2008,06,02,02,35,0.00
2008,06,02,02,36,0.00
2008,06,02,02,37,0.00
2008,06,02,02,38,0.00
2008,06,02,02,39,0.00
2008,06,02,02,40,0.00
2008,06,02,02,41,0.00
2008,06,02,02,42,0.00
2008,06,02,02,43,0.00
2008,06,02,02,44,0.00
2008,06,02,02,45,0.00
2008,06,02,02,46,0.00
2008,06,02,02,47,0.00
2008,06,02,02,48,0.00
2008,06,02,02,49,0.00
2008,06,02,02,50,0.00
2008,06,02,02,51,0.00
2008,06,02,02,52,0.00
2008,06,02,02,53,0.00
2008,06,02,02,54,0.00
2008,06,02,02,55,0.00
2008,06,02,02,56,0.00
2008,06,02,02,57,0.00
2008,06,02,02,58,0.00
2008,06,02,02,59,0.00
2008,06,02,03,00,0.00
2008,06,02,03,01,0.00
2008,06,02,03,02,0.00
2008,06,02,03,03,0.00
2008,06,02,03,04,0.00
2008,06,02,03,05,0.00
2008,06,02,03,06,0.00
2008,06,02,03,07,0.00
2008,06,02,03,08,0.00
2008,06,02,03,09,0.00
2008,06,02,03,10,0.00
2008,06,02,03,11,0.00
2008,06,02,03,12,0.00
2008,06,02,03,13,0.00
2008,06,02,03,14,0.00
2008,06,02,03,15,0.00
2008,06,02,03,16,0.00
2008,06,02,03,17,0.00
2008,06,02,03,18,0.00
2008,06,02,03,19,0.00
2008,06,02,03,20,0.00
2008,06,02,03,21,0.00
2008,06,02,03,22,0.00
2008,06,02,03,23,0.00
2008,06,02,03,24,0.00
2008,06,02,03,25,0.00
2008,06,02,03,26,0.00
2008,06,02,03,27,0.00
2008,06,02,03,28,0.00
2008,06,02,03,29,0.00
2008,06,02,03,30,0.00
2008,06,02,03,31,0.00
2008,06,02,03,32,0.00
2008,06,02,03,33,0.00
2008,06,02,03,34,0.00
2008,06,02,03,35,0.00
2008,06,02,03,36,0.00
2008,06,02,03,37,0.00
2008,06,02,03,38,0.00
2008,06,02,03,39,0.00
2008,06,02,03,40,0.00
2008,06,02,03,41,0.00
2008,06,02,03,42,0.00
2008,06,02,03,43,0.00
2008,06,02,03,44,0.00
2008,06,02,03,45,0.00
2008,06,02,03,46,0.00
2008,06,02,03,47,0.00
2008,06,02,03,48,0.00
2008,06,02,03,49,0.00
2008,06,02,03,50,0.00
2008,06,02,03,51,0.00
2008,06,02,03,52,0.00
2008,06,02,03,53,0.00
2008,06,02,03,54,0.00
2008,06,02,03,55,0.00
2008,06,02,03,56,0.00
2008,06,02,03,57,0.00
2008,06,02,03,58,0.00
2008,06,02,03,59,0.00
2008,06,02,04,00,0.00
2008,06,02,04,01,0.00
2008,06,02,04,02,0.00
2008,06,02,04,03,0.00
2008,06,02,04,04,0.00
2008,06,02,04,05,0.00
2008,06,02,04,06,0.00
2008,06,02,04,07,0.00
2008,06,02,04,08,0.00
2008,06,02,04,09,0.00
2008,06,02,04,10,0.00
2008,06,02,04,11,0.00
2008,06,02,04,12,0.00
2008,06,02,04,13,0.00
2008,06,02,04,14,0.00
2008,06,02,04,15,0.00
2008,06,02,04,16,0.00
2008,06,02,04,17,0.00
2008,06,02,04,18,0.00
2008,06,02,04,19,0.00
2008,06,02,04,20,0.00
2008,06,02,04,21,0.00
2008,06,02,04,22,0.00
2008,06,02,04,23,0.00
2008,06,02,04,24,0.00
2008,06,02,04,25,0.00
2008,06,02,04,26,0.00
2008,06,02,04,27,0.00
2008,06,02,04,28,0.00
2008,06,02,04,29,0.00
2008,06,02,04,30,0.00
2008,06,02,04,31,0.00
2008,06,02,04,32,0.00
2008,06,02,04,33,0.00
2008,06,02,04,34,0.00
2008,06,02,04,35,0.00
2008,06,02,04,36,0.00
2008,06,02,04,37,0.00
2008,06,02,04,38,0.00
2008,06,02,04,39,0.00
2008,06,02,04,40,0.00
2008,06,02,04,41,0.00
2008,06,02,04,42,0.00
2008,06,02,04,43,0.00
2008,06,02,04,44,0.00
2008,06,02,04,45,0.00
2008,06,02,04,46,0.00
2008,06,02,04,47,0.00
2008,06,02,04,48,0.00
2008,06,02,04,49,0.00
2008,06,02,04,50,0.00
2008,06,02,04,51,0.00
2008,06,02,04,52,0.00
2008,06,02,04,53,0.00
2008,06,02,04,54,0.00
2008,06,02,04,55,0.00
2008,06,02,04,56,0.00
2008,06,02,04,57,0.00
2008,06,02,04,58,0.00
2008,06,02,04,59,0.00
2008,06,02,05,00,0.00
2008,06,02,05,01,0.00
2008,06,02,05,02,0.00
2008,06,02,05,03,0.00
2008,06,02,05,04,0.00
2008,06,02,05,05,0.00
2008,06,02,05,06,0.00
2008,06,02,05,07,0.00
2008,06,02,05,08,0.00
2008,06,02,05,09,0.00
2008,06,02,05,10,0.00
2008,06,02,05,11,0.00
2008,06,02,05,12,0.00
2008,06,02,05,13,0.00
2008,06,02,05,14,0.00
2008,06,02,05,15,0.00
2008,06,02,05,16,0.00
2008,06,02,05,17,0.00
2008,06,02,05,18,0.00
2008,06,02,05,19,0.00
2008,06,02,05,20,0.00
2008,06,02,05,21,0.00
2008,06,02,05,22,0.00
2008,06,02,05,23,0.00
2008,06,02,05,24,0.00
2008,06,02,05,25,3.00
2008,06,02,05,26,5.00
2008,06,02,05,27,5.00
2008,06,02,05,28,5.00
2008,06,02,05,29,5.20
2008,06,02,05,30,7.00
2008,06,02,05,31,7.00
2008,06,02,05,32,7.90
2008,06,02,05,33,9.00
2008,06,02,05,34,9.00
2008,06,02,05,35,9.00
2008,06,02,05,36,9.00
2008,06,02,05,37,9.00
2008,06,02,05,38,9.00
2008,06,02,05,39,9.00
2008,06,02,05,40,9.80
2008,06,02,05,41,11.00
2008,06,02,05,42,11.00
2008,06,02,05,43,11.70
2008,06,02,05,44,13.50
2008,06,02,05,45,14.00
2008,06,02,05,46,14.00
2008,06,02,05,47,14.40
2008,06,02,05,48,16.00
2008,06,02,05,49,16.00
2008,06,02,05,50,17.10
2008,06,02,05,51,18.00
2008,06,02,05,52,18.70
2008,06,02,05,53,19.00
2008,06,02,05,54,19.10
2008,06,02,05,55,21.00
2008,06,02,05,56,21.40
2008,06,02,05,57,23.00
2008,06,02,05,58,23.90
2008,06,02,05,59,25.50
2008,06,02,06,00,26.00
2008,06,02,06,01,27.70
2008,06,02,06,02,29.90
2008,06,02,06,03,32.10
2008,06,02,06,04,33.00
2008,06,02,06,05,33.00
2008,06,02,06,06,33.00
2008,06,02,06,07,33.00
2008,06,02,06,08,33.00
2008,06,02,06,09,33.00
2008,06,02,06,10,33.00
2008,06,02,06,11,33.00
2008,06,02,06,12,33.00
2008,06,02,06,13,33.00
2008,06,02,06,14,33.00
2008,06,02,06,15,32.60
2008,06,02,06,16,32.00
2008,06,02,06,17,32.00
2008,06,02,06,18,32.00
2008,06,02,06,19,30.20
2008,06,02,06,20,30.00
2008,06,02,06,21,30.00
2008,06,02,06,22,30.00
2008,06,02,06,23,30.00
2008,06,02,06,24,30.00
2008,06,02,06,25,31.10
2008,06,02,06,26,32.00
2008,06,02,06,27,32.00
2008,06,02,06,28,32.00
2008,06,02,06,29,35.00
2008,06,02,06,30,35.40
2008,06,02,06,31,37.00
2008,06,02,06,32,37.80
2008,06,02,06,33,39.60
2008,06,02,06,34,41.20
2008,06,02,06,35,43.40
2008,06,02,06,36,45.80
2008,06,02,06,37,48.80
2008,06,02,06,38,51.30
2008,06,02,06,39,53.30
2008,06,02,06,40,54.70
2008,06,02,06,41,56.00
2008,06,02,06,42,56.00
2008,06,02,06,43,57.30
2008,06,02,06,44,59.50
2008,06,02,06,45,60.00
2008,06,02,06,46,62.00
2008,06,02,06,47,62.00
2008,06,02,06,48,62.00
2008,06,02,06,49,61.20
2008,06,02,06,50,59.00
2008,06,02,06,51,58.00
2008,06,02,06,52,56.60
2008,06,02,06,53,56.00
2008,06,02,06,54,57.90
2008,06,02,06,55,58.20
2008,06,02,06,56,60.50
2008,06,02,06,57,62.00
2008,06,02,06,58,62.00
2008,06,02,06,59,62.50
2008,06,02,07,00,63.00
2008,06,02,07,01,63.00
2008,06,02,07,02,63.00
2008,06,02,07,03,63.10
2008,06,02,07,04,65.30
2008,06,02,07,05,67.60
2008,06,02,07,06,69.40
2008,06,02,07,07,70.00
2008,06,02,07,08,71.20
2008,06,02,07,09,72.00
2008,06,02,07,10,72.00
2008,06,02,07,11,70.20
2008,06,02,07,12,72.00
2008,06,02,07,13,72.00
2008,06,02,07,14,72.60
2008,06,02,07,15,74.80
2008,06,02,07,16,76.40
2008,06,02,07,17,78.20
2008,06,02,07,18,80.40
2008,06,02,07,19,81.00
2008,06,02,07,20,83.00
2008,06,02,07,21,84.30
2008,06,02,07,22,86.50
2008,06,02,07,23,88.70
2008,06,02,07,24,91.30
2008,06,02,07,25,94.20
2008,06,02,07,26,96.30
2008,06,02,07,27,97.80
2008,06,02,07,28,98.00
2008,06,02,07,29,99.90
2008,06,02,07,30,100.30
2008,06,02,07,31,102.80
2008,06,02,07,32,106.60
2008,06,02,07,33,111.00
2008,06,02,07,34,116.10
2008,06,02,07,35,121.60
2008,06,02,07,36,126.20
2008,06,02,07,37,130.00
2008,06,02,07,38,132.20
2008,06,02,07,39,134.20
2008,06,02,07,40,135.70
2008,06,02,07,41,137.00
2008,06,02,07,42,137.00
2008,06,02,07,43,137.00
2008,06,02,07,44,135.40
2008,06,02,07,45,134.20
2008,06,02,07,46,131.90
2008,06,02,07,47,129.70
2008,06,02,07,48,128.00
2008,06,02,07,49,127.60
2008,06,02,07,50,127.50
2008,06,02,07,51,129.20
2008,06,02,07,52,130.00
2008,06,02,07,53,133.00
2008,06,02,07,54,134.00
2008,06,02,07,55,134.00
2008,06,02,07,56,134.00
2008,06,02,07,57,134.30
2008,06,02,07,58,135.00
2008,06,02,07,59,137.00
2008,06,02,08,00,141.00
2008,06,02,08,01,143.60
2008,06,02,08,02,145.60
2008,06,02,08,03,148.00
2008,06,02,08,04,148.10
2008,06,02,08,05,150.50
2008,06,02,08,06,155.90
2008,06,02,08,07,160.20
2008,06,02,08,08,165.00
2008,06,02,08,09,169.60
2008,06,02,08,10,171.80
2008,06,02,08,11,175.40
2008,06,02,08,12,179.00
2008,06,02,08,13,179.30
2008,06,02,08,14,181.00
2008,06,02,08,15,181.00
2008,06,02,08,16,181.00
2008,06,02,08,17,183.20
2008,06,02,08,18,187.10
2008,06,02,08,19,191.60
2008,06,02,08,20,192.00
2008,06,02,08,21,196.80
2008,06,02,08,22,194.60
2008,06,02,08,23,191.30
2008,06,02,08,24,185.80
2008,06,02,08,25,182.00
2008,06,02,08,26,182.20
2008,06,02,08,27,187.90
2008,06,02,08,28,215.50
2008,06,02,08,29,223.80
2008,06,02,08,30,285.50
2008,06,02,08,31,276.20
2008,06,02,08,32,329.50
2008,06,02,08,33,346.30
2008,06,02,08,34,315.00
2008,06,02,08,35,357.90
2008,06,02,08,36,381.00
2008,06,02,08,37,230.70
2008,06,02,08,38,216.60
2008,06,02,08,39,255.10
2008,06,02,08,40,319.00
2008,06,02,08,41,348.10
2008,06,02,08,42,452.90
2008,06,02,08,43,471.40
2008,06,02,08,44,378.80
2008,06,02,08,45,314.10
2008,06,02,08,46,309.00
2008,06,02,08,47,352.00
2008,06,02,08,48,575.20
2008,06,02,08,49,532.30
2008,06,02,08,50,527.90
2008,06,02,08,51,494.30
2008,06,02,08,52,527.70
2008,06,02,08,53,527.70
2008,06,02,08,54,526.80
2008,06,02,08,55,513.80
2008,06,02,08,56,529.20
2008,06,02,08,57,539.40
2008,06,02,08,58,546.90
2008,06,02,08,59,551.00
2008,06,02,09,00,541.00
2008,06,02,09,01,341.70
2008,06,02,09,02,271.20
2008,06,02,09,03,275.60
2008,06,02,09,04,344.80
2008,06,02,09,05,349.70
2008,06,02,09,06,371.00
2008,06,02,09,07,371.00
2008,06,02,09,08,371.00
2008,06,02,09,09,213.70
2008,06,02,09,10,135.00
2008,06,02,09,11,135.00
2008,06,02,09,12,601.00
2008,06,02,09,13,601.00
2008,06,02,09,14,601.00
2008,06,02,09,15,566.40
2008,06,02,09,16,543.50
2008,06,02,09,17,579.80
2008,06,02,09,18,579.40
2008,06,02,09,19,581.70
2008,06,02,09,20,582.00
2008,06,02,09,21,580.90
2008,06,02,09,22,589.00
2008,06,02,09,23,589.00
2008,06,02,09,24,606.60
2008,06,02,09,25,612.30
2008,06,02,09,26,587.00
2008,06,02,09,27,524.00
2008,06,02,09,28,529.00
2008,06,02,09,29,517.00
2008,06,02,09,30,517.00
2008,06,02,09,31,547.40
2008,06,02,09,32,667.00
2008,06,02,09,33,674.30
2008,06,02,09,34,667.30
2008,06,02,09,35,678.30
2008,06,02,09,36,672.00
2008,06,02,09,37,670.00
2008,06,02,09,38,642.90
2008,06,02,09,39,394.00
2008,06,02,09,40,376.50
2008,06,02,09,41,382.80
2008,06,02,09,42,371.50
2008,06,02,09,43,382.20
2008,06,02,09,44,383.00
2008,06,02,09,45,514.60
2008,06,02,09,46,531.00
2008,06,02,09,47,525.30
2008,06,02,09,48,480.00
2008,06,02,09,49,480.00
2008,06,02,09,50,547.60
2008,06,02,09,51,651.50
2008,06,02,09,52,652.70
2008,06,02,09,53,653.60
2008,06,02,09,54,655.70
2008,06,02,09,55,657.10
2008,06,02,09,56,659.30
2008,06,02,09,57,661.80
2008,06,02,09,58,664.80
2008,06,02,09,59,667.00
2008,06,02,10,00,669.20
2008,06,02,10,01,670.70
2008,06,02,10,02,672.70
2008,06,02,10,03,676.80
2008,06,02,10,04,679.10
2008,06,02,10,05,680.00
2008,06,02,10,06,681.20
2008,06,02,10,07,684.00
2008,06,02,10,08,685.70
2008,06,02,10,09,687.00
2008,06,02,10,10,689.70
2008,06,02,10,11,692.60
2008,06,02,10,12,696.00
2008,06,02,10,13,696.60
2008,06,02,10,14,700.20
2008,06,02,10,15,700.60
2008,06,02,10,16,701.30
2008,06,02,10,17,704.10
2008,06,02,10,18,706.30
2008,06,02,10,19,709.30
2008,06,02,10,20,710.00
2008,06,02,10,21,714.00
2008,06,02,10,22,717.00
2008,06,02,10,23,718.10
2008,06,02,10,24,721.40
2008,06,02,10,25,723.10
2008,06,02,10,26,724.00
2008,06,02,10,27,726.90
2008,06,02,10,28,728.80
2008,06,02,10,29,731.00
2008,06,02,10,30,733.20
2008,06,02,10,31,735.70
2008,06,02,10,32,737.70
2008,06,02,10,33,739.20
2008,06,02,10,34,742.00
2008,06,02,10,35,742.00
2008,06,02,10,36,744.10
2008,06,02,10,37,745.00
2008,06,02,10,38,747.20
2008,06,02,10,39,751.20
2008,06,02,10,40,753.10
2008,06,02,10,41,756.00
2008,06,02,10,42,757.50
2008,06,02,10,43,759.00
2008,06,02,10,44,759.00
2008,06,02,10,45,762.30
2008,06,02,10,46,761.30
2008,06,02,10,47,765.30
2008,06,02,10,48,770.40
2008,06,02,10,49,772.00
2008,06,02,10,50,772.00
2008,06,02,10,51,772.00
2008,06,02,10,52,773.90
2008,06,02,10,53,777.90
2008,06,02,10,54,779.90
2008,06,02,10,55,782.00
2008,06,02,10,56,782.00
2008,06,02,10,57,783.50
2008,06,02,10,58,787.20
2008,06,02,10,59,787.60
2008,06,02,11,00,789.00
2008,06,02,11,01,789.00
2008,06,02,11,02,789.00
2008,06,02,11,03,795.60
2008,06,02,11,04,799.90
2008,06,02,11,05,798.00
2008,06,02,11,06,799.30
2008,06,02,11,07,801.20
2008,06,02,11,08,801.00
2008,06,02,11,09,806.10
2008,06,02,11,10,803.20
2008,06,02,11,11,800.00
2008,06,02,11,12,819.90
2008,06,02,11,13,821.10
2008,06,02,11,14,802.20
2008,06,02,11,15,821.60
2008,06,02,11,16,826.90
2008,06,02,11,17,829.70
2008,06,02,11,18,832.30
2008,06,02,11,19,791.00
2008,06,02,11,20,825.40
2008,06,02,11,21,838.20
2008,06,02,11,22,844.00
2008,06,02,11,23,832.90
2008,06,02,11,24,829.50
2008,06,02,11,25,870.00
2008,06,02,11,26,887.40
2008,06,02,11,27,944.80
2008,06,02,11,28,1014.50
2008,06,02,11,29,982.70
2008,06,02,11,30,974.00
2008,06,02,11,31,974.00
2008,06,02,11,32,974.00
2008,06,02,11,33,974.00
2008,06,02,11,34,974.00
2008,06,02,11,35,974.00
2008,06,02,11,36,974.00
2008,06,02,11,37,974.00
2008,06,02,11,38,969.50
2008,06,02,11,39,993.00
2008,06,02,11,40,1185.00
2008,06,02,11,41,1185.00
2008,06,02,11,42,1143.70
2008,06,02,11,43,1079.20
2008,06,02,11,44,1058.00
2008,06,02,11,45,1070.20
2008,06,02,11,46,1074.00
2008,06,02,11,47,1091.10
2008,06,02,11,48,1074.90
2008,06,02,11,49,998.00
2008,06,02,11,50,998.00
2008,06,02,11,51,1069.50
2008,06,02,11,52,1110.30
2008,06,02,11,53,1115.20
2008,06,02,11,54,1123.00
2008,06,02,11,55,1006.00
2008,06,02,11,56,1021.10
2008,06,02,11,57,1090.00
2008,06,02,11,58,1015.50
2008,06,02,11,59,877.00
2008,06,02,12,00,877.00
2008,06,02,12,01,1031.70
2008,06,02,12,02,1085.90
2008,06,02,12,03,1059.00
2008,06,02,12,04,1024.40
2008,06,02,12,05,1012.50
2008,06,02,12,06,1000.80
2008,06,02,12,07,985.20
2008,06,02,12,08,977.00
2008,06,02,12,09,984.20
2008,06,02,12,10,993.60
2008,06,02,12,11,996.70
2008,06,02,12,12,990.40
2008,06,02,12,13,978.00
2008,06,02,12,14,968.40
2008,06,02,12,15,960.90
2008,06,02,12,16,954.70
2008,06,02,12,17,956.90
2008,06,02,12,18,965.40
2008,06,02,12,19,972.90
2008,06,02,12,20,976.70
2008,06,02,12,21,985.50
2008,06,02,12,22,986.00
2008,06,02,12,23,982.40
2008,06,02,12,24,968.90
2008,06,02,12,25,967.00
2008,06,02,12,26,967.00
2008,06,02,12,27,970.10
2008,06,02,12,28,972.00
2008,06,02,12,29,976.70
2008,06,02,12,30,1001.60
2008,06,02,12,31,1065.70
2008,06,02,12,32,1111.00
2008,06,02,12,33,1095.40
2008,06,02,12,34,1049.40
2008,06,02,12,35,1004.70
2008,06,02,12,36,977.70
2008,06,02,12,37,956.50
2008,06,02,12,38,944.60
2008,06,02,12,39,939.50
2008,06,02,12,40,935.00
2008,06,02,12,41,934.30
2008,06,02,12,42,932.50
2008,06,02,12,43,932.60
2008,06,02,12,44,929.70
2008,06,02,12,45,931.50
2008,06,02,12,46,933.00
2008,06,02,12,47,932.80
2008,06,02,12,48,930.80
2008,06,02,12,49,936.20
2008,06,02,12,50,940.00
2008,06,02,12,51,940.00
2008,06,02,12,52,936.90
2008,06,02,12,53,933.70
2008,06,02,12,54,933.00
2008,06,02,12,55,934.70
2008,06,02,12,56,926.40
2008,06,02,12,57,925.80
2008,06,02,12,58,925.30
2008,06,02,12,59,926.00
2008,06,02,13,00,926.00
2008,06,02,13,01,925.40
2008,06,02,13,02,925.00
2008,06,02,13,03,925.00
2008,06,02,13,04,925.40
2008,06,02,13,05,933.30
2008,06,02,13,06,934.20
2008,06,02,13,07,923.20
2008,06,02,13,08,907.00
2008,06,02,13,09,905.50
2008,06,02,13,10,907.20
2008,06,02,13,11,920.80
2008,06,02,13,12,918.30
2008,06,02,13,13,938.70
2008,06,02,13,14,954.40
2008,06,02,13,15,953.20
2008,06,02,13,16,935.70
2008,06,02,13,17,918.50
2008,06,02,13,18,897.00
2008,06,02,13,19,879.00
2008,06,02,13,20,898.00
2008,06,02,13,21,893.00
2008,06,02,13,22,888.00
2008,06,02,13,23,885.20
2008,06,02,13,24,883.00
2008,06,02,13,25,894.80
2008,06,02,13,26,878.00
2008,06,02,13,27,869.80
2008,06,02,13,28,867.00
2008,06,02,13,29,824.10
2008,06,02,13,30,796.60
2008,06,02,13,31,774.00
2008,06,02,13,32,776.60
2008,06,02,13,33,750.10
2008,06,02,13,34,725.00
2008,06,02,13,35,747.20
2008,06,02,13,36,780.30
2008,06,02,13,37,783.20
2008,06,02,13,38,776.00
2008,06,02,13,39,802.00
2008,06,02,13,40,809.60
2008,06,02,13,41,840.50
2008,06,02,13,42,852.30
2008,06,02,13,43,871.00
2008,06,02,13,44,852.60
2008,06,02,13,45,814.80
2008,06,02,13,46,796.60
2008,06,02,13,47,791.90
2008,06,02,13,48,760.50
2008,06,02,13,49,723.30
2008,06,02,13,50,702.60
2008,06,02,13,51,737.50
2008,06,02,13,52,769.80
2008,06,02,13,53,781.60
2008,06,02,13,54,784.00
2008,06,02,13,55,773.60
2008,06,02,13,56,818.00
2008,06,02,13,57,835.00
2008,06,02,13,58,818.90
2008,06,02,13,59,778.80
2008,06,02,14,00,789.00
2008,06,02,14,01,781.30
2008,06,02,14,02,759.00
2008,06,02,14,03,748.00
2008,06,02,14,04,749.00
2008,06,02,14,05,745.10
2008,06,02,14,06,717.80
2008,06,02,14,07,707.20
2008,06,02,14,08,715.80
2008,06,02,14,09,708.80
2008,06,02,14,10,688.30
2008,06,02,14,11,675.10
2008,06,02,14,12,657.80
2008,06,02,14,13,663.00
2008,06,02,14,14,660.20
2008,06,02,14,15,643.10
2008,06,02,14,16,642.20
2008,06,02,14,17,653.20
2008,06,02,14,18,656.40
2008,06,02,14,19,677.00
2008,06,02,14,20,710.20
2008,06,02,14,21,679.30
2008,06,02,14,22,621.50
2008,06,02,14,23,560.10
2008,06,02,14,24,514.00
2008,06,02,14,25,526.00
2008,06,02,14,26,509.20
2008,06,02,14,27,481.00
2008,06,02,14,28,471.60
2008,06,02,14,29,483.40
2008,06,02,14,30,506.00
2008,06,02,14,31,525.60
2008,06,02,14,32,544.50
2008,06,02,14,33,562.00
2008,06,02,14,34,579.70
2008,06,02,14,35,585.00
2008,06,02,14,36,585.00
2008,06,02,14,37,822.50
2008,06,02,14,38,777.30
2008,06,02,14,39,847.00
2008,06,02,14,40,861.80
2008,06,02,14,41,923.00
2008,06,02,14,42,843.00
2008,06,02,14,43,733.00
2008,06,02,14,44,722.70
2008,06,02,14,45,719.70
2008,06,02,14,46,742.70
2008,06,02,14,47,682.00
2008,06,02,14,48,734.20
2008,06,02,14,49,759.00
2008,06,02,14,50,745.00
2008,06,02,14,51,729.40
2008,06,02,14,52,705.00
2008,06,02,14,53,714.40
2008,06,02,14,54,694.60
2008,06,02,14,55,742.50
2008,06,02,14,56,714.60
2008,06,02,14,57,750.90
2008,06,02,14,58,719.40
2008,06,02,14,59,737.30
2008,06,02,15,00,704.70
2008,06,02,15,01,654.80
2008,06,02,15,02,641.70
2008,06,02,15,03,646.50
2008,06,02,15,04,663.10
2008,06,02,15,05,749.00
2008,06,02,15,06,781.20
2008,06,02,15,07,810.00
2008,06,02,15,08,778.90
2008,06,02,15,09,728.50
2008,06,02,15,10,721.20
2008,06,02,15,11,724.00
2008,06,02,15,12,724.00
2008,06,02,15,13,573.00
2008,06,02,15,14,619.80
2008,06,02,15,15,611.20
2008,06,02,15,16,659.30
2008,06,02,15,17,678.50
2008,06,02,15,18,699.80
2008,06,02,15,19,712.60
2008,06,02,15,20,714.00
2008,06,02,15,21,463.90
2008,06,02,15,22,412.50
2008,06,02,15,23,389.60
2008,06,02,15,24,388.00
2008,06,02,15,25,388.00
2008,06,02,15,26,375.80
2008,06,02,15,27,364.70
2008,06,02,15,28,366.00
2008,06,02,15,29,374.20
2008,06,02,15,30,371.60
2008,06,02,15,31,374.40
2008,06,02,15,32,379.80
2008,06,02,15,33,406.70
2008,06,02,15,34,446.00
2008,06,02,15,35,446.00
2008,06,02,15,36,446.00
2008,06,02,15,37,446.00
2008,06,02,15,38,446.00
2008,06,02,15,39,551.10
2008,06,02,15,40,514.70
2008,06,02,15,41,472.50
2008,06,02,15,42,470.00
2008,06,02,15,43,461.50
2008,06,02,15,44,464.90
2008,06,02,15,45,527.60
2008,06,02,15,46,557.00
2008,06,02,15,47,593.80
2008,06,02,15,48,679.00
2008,06,02,15,49,679.00
2008,06,02,15,50,598.70
2008,06,02,15,51,437.20
2008,06,02,15,52,434.00
2008,06,02,15,53,426.50
2008,06,02,15,54,420.90
2008,06,02,15,55,424.00
2008,06,02,15,56,425.00
2008,06,02,15,57,431.60
2008,06,02,15,58,485.00
2008,06,02,15,59,537.90
2008,06,02,16,00,543.10
2008,06,02,16,01,507.40
2008,06,02,16,02,483.00
2008,06,02,16,03,483.00
2008,06,02,16,04,483.00
2008,06,02,16,05,438.00
2008,06,02,16,06,438.00
2008,06,02,16,07,438.00
2008,06,02,16,08,401.60
2008,06,02,16,09,328.30
2008,06,02,16,10,322.00
2008,06,02,16,11,322.00
2008,06,02,16,12,317.20
2008,06,02,16,13,315.00
2008,06,02,16,14,324.40
2008,06,02,16,15,348.00
2008,06,02,16,16,356.00
2008,06,02,16,17,346.70
2008,06,02,16,18,341.70
2008,06,02,16,19,336.90
2008,06,02,16,20,336.00
2008,06,02,16,21,343.20
2008,06,02,16,22,347.60
2008,06,02,16,23,392.00
2008,06,02,16,24,392.00
2008,06,02,16,25,385.80
2008,06,02,16,26,391.80
2008,06,02,16,27,384.10
2008,06,02,16,28,345.60
2008,06,02,16,29,339.00
2008,06,02,16,30,347.10
2008,06,02,16,31,360.80
2008,06,02,16,32,384.20
2008,06,02,16,33,409.40
2008,06,02,16,34,409.00
2008,06,02,16,35,410.60
2008,06,02,16,36,400.50
2008,06,02,16,37,390.40
2008,06,02,16,38,331.60
2008,06,02,16,39,316.00
2008,06,02,16,40,332.00
2008,06,02,16,41,476.00
2008,06,02,16,42,476.00
2008,06,02,16,43,523.00
2008,06,02,16,44,566.30
2008,06,02,16,45,558.00
2008,06,02,16,46,549.20
2008,06,02,16,47,525.30
2008,06,02,16,48,481.60
2008,06,02,16,49,477.50
2008,06,02,16,50,475.00
2008,06,02,16,51,447.40
2008,06,02,16,52,406.00
2008,06,02,16,53,273.30
2008,06,02,16,54,206.30
2008,06,02,16,55,204.40
2008,06,02,16,56,202.00
2008,06,02,16,57,201.20
2008,06,02,16,58,195.80
2008,06,02,16,59,202.70
2008,06,02,17,00,198.30
2008,06,02,17,01,182.90
2008,06,02,17,02,181.00
2008,06,02,17,03,184.30
2008,06,02,17,04,191.50
2008,06,02,17,05,204.50
2008,06,02,17,06,214.80
2008,06,02,17,07,226.90